Weather History for KSMQ - November, 2011

Change the Weather History Date:

Tuesday, November 1, 2011

  Actual Average Record
Temperature  
Mean Temperature 46 °F -  
Max Temperature 59 °F 58 °F 84 °F (1950)
Min Temperature 34 °F 37 °F 23 °F (1954)
Degree Days  
Heating Degree Days 20    
Moisture  
Dew Point 34 °F    
Average Humidity 71    
Maximum Humidity 93    
Minimum Humidity 35    
Precipitation  
Precipitation 0.00 in - - ()
Sea Level Pressure  
Sea Level Pressure 30.30 in    
Wind  
Wind Speed 4 mph (North)    
Max Wind Speed 9 mph    
Max Gust Speed -    
Visibility 10 miles    
Events      
Averages and records for this station are not official NWS values.
T = Trace of Precipitation, MM = Missing Value Source: NWS Daily Summary

Daily Weather History Graph

Daily Weather History Graph

Search for Another Location

Airport or City:

Trip Planner

Search our weather history database for the weather conditions in past years. The results will help you decide how hot, cold, wet, or windy it might be!

Date:

Astronomy

Nov. 01, 2011 Rise Set
Actual Time 7:28 AM EDT 5:55 PM EDT
Civil Twilight 7:00 AM EDT 6:23 PM EDT
Nautical Twilight 6:27 AM EDT 6:56 PM EDT
Astronomical Twilight 5:55 AM EDT 7:27 PM EDT
Moon 1:13 PM EDT (11/1) 11:34 PM EDT (11/1)
Length of Visible Light 11h 23m
Length of Day
10h 26m
Waxing Crescent, 39% of the Moon is Illuminated
Nov 1
Waxing Crescent
Nov 2
First Quarter
Nov 10
Full
Nov 18
Last Quarter
Nov 25
New

Hourly Weather History & Observations

Time (EDT) Temp. Windchill Dew Point Humidity Pressure Visibility Wind Dir Wind Speed Gust Speed Precip Events Conditions
12:53 AM 36.0 °F 33.3 °F 34.0 °F 93% 30.29 in 10.0 mi NW 3.5 mph - N/A   Clear
1:53 AM 36.0 °F 32.1 °F 34.0 °F 93% 30.28 in 8.0 mi NW 4.6 mph - N/A   Clear
2:53 AM 37.4 °F 34.9 °F 35.6 °F 93% 30.27 in 10.0 mi NW 3.5 mph - N/A   Clear
3:53 AM 39.0 °F - 36.0 °F 89% 30.27 in 9.0 mi Calm Calm - N/A   Clear
4:53 AM 39.9 °F 37.8 °F 37.0 °F 89% 30.28 in 10.0 mi North 3.5 mph - N/A   Scattered Clouds
5:53 AM 39.0 °F 36.8 °F 36.0 °F 89% 30.28 in 10.0 mi WNW 3.5 mph - N/A   Overcast
6:53 AM 39.9 °F 36.7 °F 36.0 °F 86% 30.27 in 10.0 mi NNW 4.6 mph - N/A   Clear
7:53 AM 37.0 °F - 35.1 °F 93% 30.29 in 8.0 mi Calm Calm - N/A   Clear
8:53 AM 42.8 °F 40.1 °F 37.4 °F 81% 30.30 in 10.0 mi NNW 4.6 mph - N/A   Clear
9:53 AM 50.0 °F - 37.0 °F 61% 30.31 in 10.0 mi NNE 4.6 mph - N/A   Clear
10:53 AM 53.1 °F - 37.0 °F 55% 30.31 in 10.0 mi NE 5.8 mph - N/A   Clear
11:53 AM 54.0 °F - 35.1 °F 49% 30.32 in 10.0 mi Variable 4.6 mph - N/A   Clear
12:53 PM 55.4 °F - 33.8 °F 44% 30.30 in 10.0 mi NE 5.8 mph - N/A   Clear
1:53 PM 57.0 °F - 30.9 °F 37% 30.28 in 10.0 mi North 9.2 mph - N/A   Clear
2:53 PM 57.9 °F - 30.0 °F 35% 30.28 in 10.0 mi North 8.1 mph - N/A   Clear
3:53 PM 57.9 °F - 30.0 °F 35% 30.28 in 10.0 mi Variable 6.9 mph - N/A   Clear
4:53 PM 57.0 °F - 32.0 °F 39% 30.29 in 10.0 mi North 5.8 mph - N/A   Clear
5:53 PM 53.1 °F - 30.9 °F 43% 30.30 in 10.0 mi North 3.5 mph - N/A   Clear
6:53 PM 44.1 °F - 33.1 °F 65% 30.32 in 10.0 mi Calm Calm - N/A   Clear
7:53 PM 39.9 °F - 34.0 °F 79% 30.33 in 10.0 mi Calm Calm - N/A   Clear
8:53 PM 37.9 °F - 34.0 °F 86% 30.34 in 10.0 mi Calm Calm - N/A   Clear
9:53 PM 36.0 °F - 33.1 °F 89% 30.35 in 10.0 mi Calm Calm - N/A   Clear
10:53 PM 34.0 °F 31.0 °F 32.0 °F 92% 30.35 in 10.0 mi NW 3.5 mph - N/A   Clear
11:53 PM 34.0 °F - 30.9 °F 89% 30.35 in 10.0 mi Calm Calm - N/A   Clear